DW6157 Weather Reports


Display with metric or nautical units.
time (UTC)temp
F
wind
direction
speed
MPH
gust
MPH
rain 1hr
in
rain 24hr
in
rain mn
in
humidity
%
barometer
mb
20260509220004 46 220 0.0 0.0 0.00 0.00 0.00 81 1017.4
20260509214504 46 220 0.0 0.0 0.00 0.00 0.00 82 1017.6
20260509213002 46 220 0.0 2.0 0.00 0.00 0.00 81 1017.6
20260509211501 47 215 1.0 4.0 0.00 0.00 0.00 81 1017.7
20260509210101 47 216 1.0 4.0 0.00 0.00 0.00 80 1017.8
20260509204603 47 227 1.0 5.0 0.00 0.00 0.00 79 1017.9
20260509203058 47 229 1.0 5.0 0.00 0.00 0.00 77 1018.0
20260509201557 47 220 2.0 6.0 0.00 0.00 0.00 76 1018.1
20260509200109 47 231 0.0 4.0 0.00 0.00 0.00 75 1018.1
20260509194557 49 224 0.0 3.0 0.00 0.00 0.00 73 1018.3
20260509193055 49 220 0.0 0.0 0.00 0.00 0.00 72 1018.3
20260509191553 50 217 0.0 0.0 0.00 0.00 0.00 71 1018.3
20260509190054 51 217 0.0 0.0 0.00 0.00 0.00 71 1018.4
20260509184551 51 217 0.0 4.0 0.00 0.00 0.00 72 1018.4
20260509183102 51 215 2.0 5.0 0.00 0.00 0.00 72 1018.6
20260509181551 51 205 2.0 6.0 0.00 0.00 0.00 72 1018.7
20260509180048 52 221 2.0 8.0 0.00 0.00 0.00 71 1018.7
20260509174551 52 200 6.0 12.0 0.00 0.00 0.00 70 1018.8
20260509173046 54 253 4.0 10.0 0.00 0.00 0.00 68 1019.0
20260509171546 54 216 8.0 12.0 0.00 0.00 0.00 66 1019.2
20260509170042 55 210 5.0 12.0 0.00 0.00 0.00 66 1019.3
20260509164541 55 194 4.0 12.0 0.00 0.00 0.00 66 1019.3
20260509163047 55 223 7.0 12.0 0.00 0.00 0.00 64 1019.5
20260509161543 56 196 8.0 13.0 0.00 0.00 0.00 63 1019.8
20260509160036 56 200 5.0 14.0 0.00 0.00 0.00 66 1019.9
20260509154533 56 200 5.0 17.0 0.00 0.00 0.00 64 1020.1
20260509153045 57 216 9.0 14.0 0.00 0.00 0.00 61 1020.2
20260509151539 57 195 9.0 12.0 0.00 0.00 0.00 65 1020.3
20260509150039 56 200 7.0 14.0 0.00 0.00 0.00 66 1020.4
20260509144528 57 193 9.0 16.0 0.00 0.00 0.00 63 1020.6
20260509143028 57 227 8.0 15.0 0.00 0.00 0.00 63 1020.7
20260509141526 58 205 6.0 13.0 0.00 0.00 0.00 65 1020.9
20260509140030 58 191 7.0 14.0 0.00 0.00 0.00 63 1020.9
20260509134524 57 210 9.0 15.0 0.00 0.00 0.00 62 1021.1
20260509133021 58 205 6.0 15.0 0.00 0.00 0.00 63 1021.3
20260509131524 59 215 9.0 15.0 0.00 0.00 0.00 60 1021.4
20260509130019 60 210 9.0 15.0 0.00 0.00 0.00 57 1021.4
20260509124522 60 210 7.0 16.0 0.00 0.00 0.00 58 1021.4
20260509123017 60 210 8.0 14.0 0.00 0.00 0.00 57 1021.5
20260509121516 60 210 8.0 16.0 0.00 0.00 0.00 54 1021.5
20260509120024 62 205 9.0 14.0 0.00 0.00 0.00 46 1021.6
20260509114514 62 249 8.0 14.0 0.00 0.00 0.00 36 1021.6
20260509113011 61 228 7.0 12.0 0.00 0.00 0.00 39 1021.7
20260509111509 60 235 7.0 16.0 0.00 0.00 0.00 43 1021.8
20260509110008 61 205 10.0 17.0 0.00 0.00 0.00 44 1022.0
20260509104508 61 235 8.0 15.0 0.00 0.00 0.00 46 1022.0
20260509103005 61 210 9.0 15.0 0.00 0.00 0.00 47 1022.0
20260509101505 62 227 9.0 16.0 0.00 0.00 0.00 48 1022.0
20260509100005 62 200 5.0 12.0 0.00 0.00 0.00 48 1022.2
20260509094559 61 214 3.0 15.0 0.00 0.00 0.00 52 1022.3
20260509093056 60 196 8.0 15.0 0.00 0.00 0.00 51 1022.5
20260509091554 60 210 7.0 14.0 0.00 0.00 0.00 56 1022.5
20260509090056 59 214 8.0 17.0 0.00 0.00 0.00 59 1022.6
20260509084551 58 200 5.0 16.0 0.00 0.00 0.00 64 1022.7
20260509083051 58 222 4.0 14.0 0.00 0.00 0.00 67 1022.7
20260509081543 57 205 7.0 15.0 0.00 0.00 0.00 69 1022.7
20260509080043 57 186 10.0 16.0 0.00 0.00 0.00 70 1022.7
20260509074545 57 191 7.0 16.0 0.00 0.00 0.00 71 1022.6
20260509073039 57 228 6.0 14.0 0.00 0.00 0.00 72 1022.7
20260509071536 57 210 6.0 13.0 0.00 0.00 0.00 75 1022.8
20260509070038 56 218 5.0 12.0 0.00 0.00 0.00 76 1022.8
20260509064535 55 200 6.0 12.0 0.00 0.00 0.00 78 1022.8
20260509063031 55 210 7.0 12.0 0.00 0.00 0.00 79 1022.9
20260509061528 55 200 6.0 12.0 0.00 0.00 0.00 80 1022.8
20260509060031 54 214 3.0 9.0 0.00 0.00 0.00 83 1022.9
20260509054519 52 205 2.0 5.0 0.00 0.00 0.00 86 1023.0
20260509053015 50 254 0.0 0.0 0.00 0.00 0.00 88 1023.0
20260509051509 48 264 0.0 0.0 0.00 0.00 0.00 89 1023.0
20260509050019 46 264 0.0 0.0 0.00 0.00 0.00 90 1023.0
20260509044502 45 264 0.0 0.0 0.00 0.00 0.00 92 1023.0
20260509043102 43 264 0.0 0.0 0.00 0.00 0.00 95 1022.9
20260509041558 40 264 0.0 0.0 0.00 0.00 0.00 95 1023.0
20260509040058 38 264 0.0 0.0 0.00 0.00 0.00 94 1023.0
20260509034556 37 264 0.0 0.0 0.00 0.00 0.00 94 1023.2
20260509033054 37 264 0.0 0.0 0.00 0.00 0.00 94 1023.3
20260509031616 37 264 0.0 0.0 0.00 0.00 0.00 94 1023.3
20260509030051 37 264 0.0 0.0 0.00 0.00 0.00 93 1023.3
20260509024552 37 264 0.0 0.0 0.00 0.00 0.00 93 1023.3
20260509023052 37 264 0.0 0.0 0.00 0.00 0.00 92 1023.5
20260509021547 37 264 0.0 0.0 0.00 0.00 0.00 92 1023.5
20260509020046 37 264 0.0 0.0 0.00 0.00 0.00 91 1023.5
20260509014545 38 264 0.0 0.0 0.00 0.00 0.00 91 1023.5
20260509013045 38 264 0.0 0.0 0.00 0.00 0.00 91 1023.6
20260509011547 38 264 0.0 0.0 0.00 0.00 0.00 91 1023.6
20260509010043 39 264 0.0 0.0 0.00 0.00 0.00 90 1023.6
20260509004547 39 264 0.0 0.0 0.00 0.00 0.00 90 1023.7
20260509003037 40 264 0.0 0.0 0.00 0.00 0.00 90 1023.7
20260509001536 39 264 0.0 0.0 0.00 0.00 0.00 90 1023.7
20260509000044 39 264 0.0 0.0 0.00 0.00 0.00 89 1023.8
20260508234535 40 264 0.0 0.0 0.00 0.00 0.00 89 1023.8
20260508233033 40 264 0.0 0.0 0.00 0.00 0.00 89 1023.7
20260508231532 40 262 0.0 0.0 0.00 0.00 0.00 89 1023.8
20260508230030 41 262 0.0 0.0 0.00 0.00 0.00 88 1023.7
20260508224530 41 261 0.0 0.0 0.00 0.00 0.00 88 1023.7
20260508223034 42 260 0.0 0.0 0.00 0.00 0.00 88 1023.7
20260508221531 42 260 0.0 0.0 0.00 0.00 0.00 88 1023.6